1280016033756,3.25266
1280016093756,3.24754
1280016153756,3.22756
1280016213756,3.23758
1280016273756,3.22795
1280016333756,3.26150
1280016393756,3.21663
1280016453756,3.23477
1280016513756,3.24075
1280016573756,3.22652
1280016633756,3.24071
1280016693756,3.20047
1280016753756,3.22324
1280016813756,3.18718
1280016873756,3.26517
1280016933756,3.19853
1280016993756,3.24277
1280017053756,3.22154
1280017113756,3.25152
1280017173756,3.22586
1280017233756,3.21656
1280017293756,3.22848
1280017353756,3.21871
1280017413756,3.23524
1280017473756,3.20032
1280017533756,3.18701
1280017593756,3.20509
1280017653756,3.24875
1280017713756,3.22072
1280017773756,3.23809
1280017833756,3.20121
1280017893756,3.21424
1280017953756,3.23129
1280018013756,3.21556
1280018073756,3.20248
1280018133756,3.23271
1280018193756,3.24862
1280018253756,3.24751
1280018313756,3.20434
1280018373756,3.22212
1280018433756,3.24026
1280018493756,3.20862
1280018553756,3.24330
1280018613756,3.22872
1280018673756,3.23761
1280018733756,3.22884
1280018793756,3.16958
1280018853756,3.21813
1280018913756,3.24718
1280018973756,3.22166
1280019033756,3.21639
1280019093756,3.26289
1280019153756,3.22589
1280019213756,3.22048
1280019273756,3.20301
1280019333756,3.20891
1280019393756,3.22519
1280019453756,3.19220
1280019513756,3.19358
1280019573756,3.22262
1280019633765,3.22751
1280019693765,3.21442
1280019753765,3.19440
1280019813765,3.21253
1280019873765,3.21034
1280019933765,3.21324
1280019993765,3.20953
1280020053765,3.19788
1280020113765,3.21462
1280020173765,3.23433
1280020233765,3.20497
1280020293765,3.18249
1280020353765,3.19270
1280020413765,3.22605
1280020473765,3.20247
1280020533765,3.21725
1280020593765,3.19200
1280020653765,3.19694
1280020713765,3.20335
1280020773765,3.22114
1280020833765,3.21049
1280020893765,3.23612
1280020953765,3.22728
1280021013765,3.21963
1280021073765,3.19824
1280021133765,3.22539
1280021193765,3.22443
1280021253765,3.19845
1280021313765,3.21481
1280021373765,3.22388
1280021433765,3.19377
1280021493765,3.21591
1280021553765,3.25294
1280021613765,3.19571
1280021673765,3.25660
1280021733765,3.21849
1280021793765,3.20944
1280021853765,3.17661
1280021913765,3.19737
1280021973765,3.21415
1280022033765,3.22532
1280022093765,3.19956
1280022153765,3.19663
1280022213765,3.22140
1280022273765,3.20165
1280022333765,3.22082
1280022393765,3.22896
1280022453765,3.18671
1280022513765,3.21366
1280022573765,3.20594
1280022633765,3.21079
1280022693765,3.23538
1280022753765,3.21901
1280022813765,3.21790
1280022873765,3.23456
1280022933765,3.24003
1280022993765,3.20249
1280023053765,3.22821
1280023113765,3.20753
1280023173765,3.20972
1280023233774,3.20688
1280023293774,3.21571
1280023353774,3.22526
1280023413774,3.20020
1280023473774,3.21378
1280023533774,3.23255
1280023593774,3.23192
1280023653774,3.21520
1280023713774,3.19546
1280023773774,3.19633
1280023833774,3.21613
1280023893774,3.21580
1280023953774,3.21426
1280024013774,3.19058
1280024073774,3.21640
1280024133774,3.21764
1280024193774,3.21969
1280024253774,3.22409
1280024313774,3.21008
1280024373774,3.21554
1280024433774,3.21774
1280024493774,3.20398
1280024553774,3.22568
1280024613774,3.19895
1280024673774,3.19449
1280024733774,3.20443
1280024793774,3.23557
1280024853774,3.23751
1280024913774,3.20905
1280024973774,3.22523
1280025033774,3.20078
1280025093774,3.23438
1280025153774,3.20489
1280025213774,3.19041
1280025273774,3.22611
1280025333774,3.24030
1280025393774,3.24788
1280025453774,3.24067
1280025513774,3.22141
1280025573774,3.25058
1280025633774,3.21502
1280025693774,3.25067
1280025753774,3.21744
1280025813774,3.21559
1280025873774,3.20552
1280025933774,3.23535
1280025993774,3.23591
1280026053774,3.22494
1280026113774,3.22090
1280026173774,3.22946
1280026233774,3.24636
1280026293774,3.25521
1280026353774,3.23664
1280026413774,3.21667
1280026473774,3.26052
1280026533774,3.22354
1280026593774,3.24047
1280026653774,3.22585
1280026713774,3.22380
1280026773774,3.21354
1280026833783,3.24232
1280026893783,3.22879
1280026953783,3.23314
1280027013783,3.25049
1280027073783,3.24210
1280027133783,3.25719
1280027193783,3.24964
1280027253783,3.22749
1280027313783,3.23033
1280027373783,3.24502
1280027433783,3.22843
1280027493783,3.25091
1280027553783,3.19914
1280027613783,3.24808
1280027673783,3.21153
1280027733783,3.22209
1280027793783,3.26789
1280027853783,3.21876
1280027913783,3.24529
1280027973783,3.23514
1280028033783,3.24488
1280028093783,3.27942
1280028153783,3.24170
1280028213783,3.24694
1280028273783,3.22153
1280028333783,3.22321
1280028393783,3.21559
1280028453783,3.24615
1280028513783,3.22950
1280028573783,3.25885
1280028633783,3.24721
1280028693783,3.20727
1280028753783,3.23909
1280028813783,3.23976
1280028873783,3.25596
1280028933783,3.25637
1280028993783,3.26772
1280029053783,3.23745
1280029113783,3.26319
1280029173783,3.26172
1280029233783,3.21197
1280029293783,3.24590
1280029353783,3.24808
1280029413783,3.25492
1280029473783,3.23367
1280029533783,3.21504
1280029593783,3.24882
1280029653783,3.23875
1280029713783,3.29089
1280029773783,3.21629
1280029833783,3.25961
1280029893783,3.24117
1280029953783,3.24933
1280030013783,3.26127
1280030073783,3.25405
1280030133783,3.24596
1280030193783,3.23523
1280030253783,3.24737
1280030313783,3.25691
1280030373783,3.24544
1280030433792,3.24318
1280030493792,3.25110
1280030553792,3.25722
1280030613792,3.28139
1280030673792,3.25616
1280030733792,3.25344
1280030793792,3.25194
1280030853792,3.27592
1280030913792,3.24584
1280030973792,3.24036
1280031033792,3.24888
1280031093792,3.23743
1280031153792,3.24866
1280031213792,3.19564
1280031273792,3.24851
1280031333792,3.25265
1280031393792,3.26470
1280031453792,3.23109
1280031513792,3.26022
1280031573792,3.22867
1280031633792,3.27024
1280031693792,3.25648
1280031753792,3.22655
1280031813792,3.24546
1280031873792,3.22831
1280031933792,3.25885
1280031993792,3.21606
1280032053792,3.26349
1280032113792,3.21623
1280032173792,3.22188
1280032233792,3.27723
1280032293792,3.18283
1280032353792,3.22830
1280032413792,3.25576
1280032473792,3.18731
1280032533792,3.24898
1280032593792,3.22658
1280032653792,3.21901
1280032713792,3.22371
1280032773792,3.24101
1280032833792,3.23416
1280032893792,3.23189
1280032953792,3.19947
1280033013792,3.28511
1280033073792,3.23373
1280033133792,3.22351
1280033193792,3.26328
1280033253792,3.21696
1280033313792,3.23844
1280033373792,3.24185
1280033433792,3.26192
1280033493792,3.24650
1280033553792,3.23848
1280033613792,3.24179
1280033673792,3.23452
1280033733792,3.21760
1280033793792,3.22950
1280033853792,3.22244
1280033913792,3.25287
1280033973792,3.24254
1280034033801,3.23581
1280034093801,3.22923
1280034153801,3.25202
1280034213801,3.25917
1280034273801,3.23543
1280034333801,3.25653
1280034393801,3.26344
1280034453801,3.26949
1280034513801,3.25737
1280034573801,3.24779
1280034633801,3.23578
1280034693801,3.27032
1280034753801,3.24810
1280034813801,3.23717
1280034873801,3.27223
1280034933801,3.26742
1280034993801,3.30253
1280035053801,3.24212
1280035113801,3.21728
1280035173801,3.24861
1280035233801,3.24227
1280035293801,3.27584
1280035353801,3.24172
1280035413801,3.23365
1280035473801,3.23215
1280035533801,3.24016
1280035593801,3.28172
1280035653801,3.21802
1280035713801,3.24346
1280035773801,3.23615
1280035833801,3.26874
1280035893801,3.26914
1280035953801,3.26103
1280036013801,3.26149
1280036073801,3.26421
1280036133801,3.23978
1280036193801,3.24168
1280036253801,3.24668
1280036313801,3.26560
1280036373801,3.25159
1280036433801,3.25876
1280036493801,3.25143
1280036553801,3.25573
1280036613801,3.29079
1280036673801,3.24778
1280036733801,3.24209
1280036793801,3.25619
1280036853801,3.26125
1280036913801,3.24963
1280036973801,3.28068
1280037033801,3.26595
1280037093801,3.28676
1280037153801,3.24680
1280037213801,3.24972
1280037273801,3.23101
1280037333801,3.25163
1280037393801,3.24472
1280037453801,3.25686
1280037513801,3.24878
1280037573801,3.25835
1280037633810,3.24425
1280037693810,3.25817
1280037753810,3.26545
1280037813810,3.26568
1280037873810,3.25699
1280037933810,3.25977
1280037993810,3.23777
1280038053810,3.24458
1280038113810,3.24595
1280038173810,3.23849
1280038233810,3.25971
1280038293810,3.24106
1280038353810,3.26053
1280038413810,3.23504
1280038473810,3.22926
1280038533810,3.24174
1280038593810,3.24642
1280038653810,3.23273
1280038713810,3.26131
1280038773810,3.23825
1280038833810,3.24177
1280038893810,3.25236
1280038953810,3.26797
1280039013810,3.26369
1280039073810,3.24533
1280039133810,3.25214
1280039193810,3.28074
1280039253810,3.25742
1280039313810,3.25743
1280039373810,3.24915
1280039433810,3.25712
1280039493810,3.27439
1280039553810,3.26748
1280039613810,3.26323
1280039673810,3.28177
1280039733810,3.26185
1280039793810,3.29456
1280039853810,3.29818
1280039913810,3.25085
1280039973810,3.26900
1280040033810,3.30100
1280040093810,3.26513
1280040153810,3.27072
1280040213810,3.24811
1280040273810,3.26968
1280040333810,3.26046
1280040393810,3.27870
1280040453810,3.27235
1280040513810,3.27302
1280040573810,3.32156
1280040633810,3.25403
1280040693810,3.28690
1280040753810,3.29667
1280040813810,3.26663
1280040873810,3.29450
1280040933810,3.29022
1280040993810,3.27515
1280041053810,3.29772
1280041113810,3.24792
1280041173810,3.29864
1280041233818,3.31138
1280041293818,3.29492
1280041353818,3.31162
1280041413818,3.27000
1280041473818,3.27483
1280041533818,3.27540
1280041593818,3.27078
1280041653818,3.27776
1280041713818,3.30415
1280041773818,3.29215
1280041833818,3.28370
1280041893818,3.29571
1280041953818,3.29310
1280042013818,3.27627
1280042073818,3.29358
1280042133818,3.25940
1280042193818,3.28519
1280042253818,3.28564
1280042313818,3.29782
1280042373818,3.29346
1280042433818,3.30662
1280042493818,3.29255
1280042553818,3.27982
1280042613818,3.27274
1280042673818,3.27138
1280042733818,3.25378
1280042793818,3.28078
1280042853818,3.24398
1280042913818,3.26093
1280042973818,3.26697
1280043033818,3.27345
1280043093818,3.28281
1280043153818,3.29815
1280043213818,3.26373
1280043273818,3.28322
1280043333818,3.25915
1280043393818,3.27245
1280043453818,3.29220
1280043513818,3.26596
1280043573818,3.26181
1280043633818,3.27516
1280043693818,3.26919
1280043753818,3.29032
1280043813818,3.29291
1280043873818,3.26712
1280043933818,3.27311
1280043993818,3.27841
1280044053818,3.29411
1280044113818,3.24997
1280044173818,3.28148
1280044233818,3.24164
1280044293818,3.29694
1280044353818,3.26821
1280044413818,3.26662
1280044473818,3.30133
1280044533818,3.27290
1280044593818,3.24929
1280044653818,3.27394
1280044713818,3.27674
1280044773818,3.27345
1280044833827,3.24915
1280044893827,3.25517
1280044953827,3.28777
1280045013827,3.27367
1280045073827,3.27613
1280045133827,3.25240
1280045193827,3.28925
1280045253827,3.28601
1280045313827,3.26695
1280045373827,3.27053
1280045433827,3.25588
1280045493827,3.27635
1280045553827,3.27190
1280045613827,3.25422
1280045673827,3.27079
1280045733827,3.25532
1280045793827,3.24561
1280045853827,3.26605
1280045913827,3.26337
1280045973827,3.24619
1280046033827,3.21660
1280046093827,3.24217
1280046153827,3.24666
1280046213827,3.25001
1280046273827,3.25526
1280046333827,3.26043
1280046393827,3.25760
1280046453827,3.23064
1280046513827,3.25195
1280046573827,3.26836
1280046633827,3.25122
1280046693827,3.25696
1280046753827,3.23428
1280046813827,3.25350
1280046873827,3.28566
1280046933827,3.24866
1280046993827,3.25198
1280047053827,3.25718
1280047113827,3.25467
1280047173827,3.28560
1280047233827,3.24258
1280047293827,3.26269
1280047353827,3.24230
1280047413827,3.26362
1280047473827,3.24523
1280047533827,3.23393
1280047593827,3.23916
1280047653827,3.23939
1280047713827,3.25155
1280047773827,3.25823
1280047833827,3.24725
1280047893827,3.22607
1280047953827,3.26541
1280048013827,3.24862
1280048073827,3.27456
1280048133827,3.25634
1280048193827,3.22444
1280048253827,3.27432
1280048313827,3.23444
1280048373827,3.24763
1280048433836,3.22617
1280048493836,3.23626
1280048553836,3.22995
1280048613836,3.22417
1280048673836,3.26256
1280048733836,3.24244
1280048793836,3.23813
1280048853836,3.26499
1280048913836,3.27518
1280048973836,3.22168
1280049033836,3.21937
1280049093836,3.26135
1280049153836,3.24282
1280049213836,3.24225
1280049273836,3.22211
1280049333836,3.24279
1280049393836,3.26284
1280049453836,3.21644
1280049513836,3.26110
1280049573836,3.24990
1280049633836,3.21200
1280049693836,3.35393
1280049753836,3.24764
1280049813836,3.22764
1280049873836,3.20987
1280049933836,3.24036
1280049993836,3.21859
1280050053836,3.27300
1280050113836,3.25113
1280050173836,3.22185
1280050233836,3.24854
1280050293836,3.20743
1280050353836,3.27442
1280050413836,3.24657
1280050473836,3.27158
1280050533836,3.22891
1280050593836,3.24446
1280050653836,3.22846
1280050713836,3.22012
1280050773836,3.25318
1280050833836,3.23562
1280050893836,3.21630
1280050953836,3.21989
1280051013836,3.21338
1280051073836,3.23528
1280051133836,3.22435
1280051193836,3.26535
1280051253836,3.25441
1280051313836,3.22876
1280051373836,3.25410
1280051433836,3.24477
1280051493836,3.23377
1280051553836,3.22793
1280051613836,3.24369
1280051673836,3.24613
1280051733836,3.24149
1280051793836,3.20276
1280051853836,3.21425
1280051913836,3.21817
1280051973836,3.23608
1280052033845,3.23643
1280052093845,3.22858
1280052153845,3.21767
1280052213845,3.23893
1280052273845,3.40741
1280052333845,3.19273
1280052393845,3.23448
1280052453845,3.20064
1280052513844,3.22827
1280052573844,3.21680
1280052633844,3.23393
1280052693844,3.22129
1280052753844,3.21387
1280052813844,3.24426
1280052873844,3.24096
1280052933844,3.22622
1280052993845,3.21552
1280053053845,3.21627
1280053113845,3.22565
1280053173844,3.23367
1280053233844,3.23133
1280053293844,3.19597
1280053353845,3.20954
1280053413845,3.20772
1280053473845,3.18931
1280053533845,3.19418
1280053593845,3.22667
1280053653845,3.23417
1280053713845,3.19206
1280053773845,3.20833
1280053833844,3.23176
1280053893844,3.20934
1280053953844,3.19545
1280054013844,3.21066
1280054073844,3.25916
1280054133844,3.21196
1280054193844,3.19743
1280054253844,3.18675
1280054313844,3.21780
1280054373845,3.18577
1280054433845,3.21485
1280054493844,3.17660
1280054553844,3.21589
1280054613844,3.21862
1280054673845,3.22166
1280054733845,3.19125
1280054793845,3.16616
1280054853845,3.22447
1280054913845,3.18288
1280054973845,3.20183
1280055033845,3.22661
1280055093845,3.19776
1280055153845,3.20117
1280055213844,3.19588
1280055273844,3.18950
1280055333844,3.22955
1280055393844,3.20080
1280055453844,3.22015
1280055513844,3.22666
1280055573844,3.20797
1280055633853,3.24146
1280055693853,3.21713
1280055753853,3.23633
1280055813853,3.24772
1280055873853,3.20359
1280055933853,3.20178
1280055993853,3.22064
1280056053853,3.21718
1280056113853,3.23699
1280056173853,3.21437
1280056233853,3.23148
1280056293853,3.21882
1280056353853,3.19499
1280056413853,3.18856
1280056473853,3.21462
1280056533853,3.19470
1280056593853,3.20743
1280056653853,3.20448
1280056713853,3.19864
1280056773853,3.19221
1280056833853,3.22050
1280056893853,3.21248
1280056953853,3.21588
1280057013853,3.23297
1280057073853,3.19772
1280057133853,3.19787
1280057193853,3.21568
1280057253853,3.18515
1280057313853,3.18576
1280057373853,3.20403
1280057433853,3.21170
1280057493853,3.21343
1280057553853,3.20505
1280057613853,3.19486
1280057673853,3.20896
1280057733853,3.23043
1280057793853,3.20305
1280057853853,3.19181
1280057913853,3.19952
1280057973853,3.22325
1280058033853,3.18515
1280058093853,3.15628
1280058153853,3.19085
1280058213853,3.19265
1280058273853,3.18974
1280058333853,3.19630
1280058393853,3.20197
1280058453853,3.18580
1280058513853,3.21084
1280058573853,3.23571
1280058633853,3.21534
1280058693853,3.18555
1280058753853,3.21109
1280058813853,3.22390
1280058873853,3.21666
1280058933853,3.18536
1280058993853,3.21486
1280059053853,3.22482
1280059113853,3.20265
1280059173853,3.17480
1280059233862,3.20862
1280059293862,3.20357
1280059353862,3.21344
1280059413862,3.20588
1280059473862,3.18631
1280059533862,3.21526
1280059593862,3.21697
1280059653862,3.19899
1280059713862,3.22406
1280059773862,3.22080
1280059833862,3.22575
1280059893862,3.20757
1280059953862,3.19763
1280060013862,3.24498
1280060073862,3.26184
1280060133862,3.20370
1280060193862,3.18967
1280060253862,3.20900
1280060313862,3.18374
1280060373862,3.18991
1280060433862,3.19229
1280060493862,3.20129
1280060553862,3.21332
1280060613862,3.20664
1280060673862,3.23116
1280060733862,3.19930
1280060793862,3.22766
1280060853862,3.19885
1280060913862,3.20281
1280060973862,3.18302
1280062173862,3.19143
1280062233862,3.19446
1280062293862,3.21807
1280062353862,3.19581
1280062413862,3.18810
1280062473862,3.18886
1280062533862,3.22084
1280062593862,3.17495
1280062653862,3.20140
1280062713862,3.17325
1280062773862,3.20755
1280062833871,3.19787
1280062893871,3.20855
1280062953871,3.21853
1280063013871,3.18507
1280063073871,3.20386
1280063133871,3.16920
1280063193871,3.18508
1280063253871,3.19305
1280063313871,3.16015
1280063373871,3.16726
1280063433871,3.19259
1280063493871,3.17345
1280063553871,3.18495
1280063613871,3.17542
1280063673871,3.20362
1280063733871,3.20657
1280063793871,3.24001
1280063853871,3.17443
1280063913871,3.14317
1280063973871,3.20605
1280064033871,3.19198
1280064093871,3.21606
1280064153871,3.17547
1280064213871,3.19102
1280064273871,3.17520
1280064333871,3.19486
1280064393871,3.20234
1280064453871,3.20481
1280064513871,3.19375
1280064573871,3.18034
1280064633871,3.20127
1280064693871,3.17783
1280064753871,3.18483
1280064813871,3.19372
1280064873871,3.21106
1280064933871,3.22905
1280064993871,3.19125
1280065053871,3.19418
1280065113871,3.24996
1280065173871,3.16963
1280065233871,3.20807
1280065293871,3.19941
1280065353871,3.20420
1280065413871,3.19225
1280065473871,3.20860
1280065533871,3.22517
1280065593871,3.16273
1280065653871,3.20875
1280065713871,3.19759
1280065773871,3.18441
1280065833871,3.20438
1280065893871,3.20528
1280065953871,3.17418
1280066013871,3.22164
1280066073871,3.20882
1280066133871,3.21305
1280066193871,3.23587
1280066253871,3.20843
1280066313871,3.21790
1280066373871,3.22345
1280066433880,3.21103
1280066493880,3.21873
1280066553880,3.19496
1280066613880,3.22023
1280066673880,3.22574
1280066733880,3.25543
1280066793880,3.21978
1280066853880,3.21179
1280066913880,3.20174
1280066973880,3.22776
1280067033880,3.23084
1280067093880,3.21860
1280067153880,3.21123
1280067213880,3.23248
1280067273880,3.19252
1280067333880,3.22260
1280067393880,3.22749
1280067453880,3.22216
1280067513880,3.22002
1280067573880,3.24421
1280067633880,3.24199
1280067693880,3.19511
1280067753880,3.22644
1280067813880,3.21130
1280067873880,3.19834
1280067933880,3.23039
1280067993880,3.20107
1280068053880,3.22811
1280068113880,3.24171
1280068173880,3.27270
1280068233880,3.23401
1280068293880,3.22209
1280068353880,3.23177
1280068413880,3.21902
1280068473880,3.23511
1280068533880,3.22848
1280068593880,3.23115
1280068653880,3.22760
1280068713880,3.26666
1280068773880,3.22368
1280068833880,3.22244
1280068893880,3.24493
1280068953880,3.20119
1280069013880,3.24385
1280069073880,3.21351
1280069133880,3.24445
1280069193880,3.21693
1280069253880,3.23036
1280069313880,3.20236
1280069373880,3.22310
1280069433880,3.20149
1280069493880,3.25542
1280069553880,3.22280
1280069613880,3.21195
1280069673880,3.24436
1280069733880,3.25185
1280069793880,3.23304
1280069853880,3.23081
1280069913880,3.23686
1280069973880,3.24197
1280070033889,3.20954
1280070093889,3.23642
1280070153889,3.22935
1280070213889,3.24018
1280070273889,3.21286
1280070333889,3.22255
1280070393889,3.22911
1280070453889,3.23003
1280070513889,3.22624
1280070573889,3.24483
1280070633889,3.21571
1280070693889,3.22578
1280070753889,3.19674
1280070813889,3.20104
1280070873889,3.21296
1280070933889,3.23967
1280070993889,3.22800
1280071053889,3.22402
1280071113889,3.25913
1280071173889,3.20796
1280071233889,3.23466
1280071293889,3.23811
1280071353889,3.24038
1280071413889,3.23906
1280071473889,3.23850
1280071533889,3.25148
1280071593889,3.23351
1280071653889,3.22265
1280071713889,3.24661
1280071773889,3.21959
1280071833889,3.24255
1280071893889,3.26644
1280071953889,3.20804
1280072013889,3.23273
1280072073889,3.26903
1280072133889,3.24820
1280072193889,3.22613
1280072253889,3.23799
1280072313889,3.22284
1280072373889,3.22540
1280072433889,3.22262
1280072493889,3.20171
1280072553889,3.25757
1280072613889,3.23376
1280072673889,3.27112
1280072733889,3.25188
1280072793889,3.25736
1280072853889,3.25826
1280072913889,3.24417
1280072973889,3.26340
1280073033889,3.29329
1280073093889,3.25739
1280073153889,3.24114
1280073213889,3.28002
1280073273889,3.23207
1280073333889,3.24806
1280073393889,3.25708
1280073453889,3.24801
1280073513889,3.22574
1280073573889,3.24646
1280073633899,3.27406
1280073693899,3.24524
1280073753899,3.23728
1280073813899,3.25497
1280073873899,3.27034
1280073933899,3.23103
1280073993899,3.26483
1280074053899,3.26148
1280074113899,3.24182
1280074173899,3.24765
1280074233899,3.23059
1280074293899,3.25375
1280074353899,3.22174
1280074413899,3.25171
1280074473899,3.24995
1280074533899,3.30112
1280074593899,3.26107
1280074653899,3.27175
1280074713899,3.27307
1280074773899,3.26426
1280074833899,3.26596
1280074893899,3.26986
1280074953899,3.28535
1280075013899,3.26254
1280075073899,3.27940
1280075133899,3.29180
1280075193899,3.27961
1280075253899,3.26188
1280075313899,3.28106
1280075373899,3.30658
1280075433899,3.26386
1280075493899,3.27782
1280075553899,3.27193
1280075613899,3.26208
1280075673899,3.27203
1280075733899,3.26967
1280075793899,3.25346
1280075853899,3.30187
1280075913899,3.26097
1280075973899,3.25363
1280076033899,3.26630
1280076093899,3.26925
1280076153899,3.28296
1280076213899,3.27191
1280076273899,3.24600
1280076333899,3.31119
1280076393899,3.32980
1280076453899,3.27880
1280076513899,3.26945
1280076573899,3.29452
1280076633899,3.29884
1280076693899,3.30726
1280076753899,3.26584
1280076813899,3.29070
1280076873899,3.28474
1280076933899,3.31081
1280076993899,3.27407
1280077053899,3.27906
1280077113899,3.26895
1280077173899,3.25984
1280077233909,3.30910
1280077293909,3.31739
1280077353909,3.30704
1280077413909,3.27007
1280077473909,3.28281
1280077533909,3.28694
1280077593909,3.29256
1280077653909,3.27200
1280077713909,3.27788
1280077773909,3.26500
1280077833909,3.28984
1280077893909,3.27901
1280077953909,3.27279
1280078013909,3.30204
1280078073909,3.28373
1280078133909,3.25988
1280078193909,3.27225
1280078253909,3.27551
1280078313909,3.28114
1280078373909,3.28292
1280078433909,3.24534
1280078493909,3.26221
1280078553909,3.27683
1280078613909,3.25768
1280078673909,3.26256
1280078733909,3.30088
1280078793909,3.31608
1280078853909,3.28495
1280078913909,3.30186
1280078973909,3.26066
1280079033909,3.29824
1280079093909,3.30584
1280079153909,3.28381
1280079213909,3.30355
1280079273909,3.29474
1280079333909,3.28002
1280079393909,3.29567
1280079453909,3.28695
1280079513909,3.27475
1280079573909,3.27630
1280079633909,3.28761
1280079693909,3.27732
1280079753909,3.30028
1280079813909,3.26305
1280079873909,3.29358
1280079933909,3.31425
1280079993909,3.24290
1280080053909,3.30284
1280080113909,3.29704
1280080173909,3.28012
1280080233909,3.31800
1280080293909,3.25952
1280080353909,3.28813
1280080413909,3.30378
1280080473909,3.32528
1280080533909,3.32340
1280080593909,3.28453
1280080653909,3.27247
1280080713909,3.32124
1280080773909,3.28895
1280080833919,3.30417
1280080893919,3.26669
1280080953919,3.26654
1280081013919,3.26790
1280081073919,3.28791
1280081133919,3.26132
1280081193919,3.27694
1280081253919,3.29114
1280081313919,3.25954
1280081373919,3.29096
1280081433919,3.30296
1280081493919,3.31039
1280081553919,3.29830
1280081613919,3.29909
1280081673919,3.30305
1280081733919,3.28218
1280081793919,3.28045
1280081853919,3.31517
1280081913919,3.28879
1280081973919,3.28970
1280082033919,3.30286
1280082093919,3.29737
1280082153919,3.32154
1280082213919,3.28747
1280082273919,3.30668
1280082333919,3.30222
1280082393919,3.28944
1280082453919,3.33616
1280082513919,3.30399